Regional Weather Roundup
Issued by NWS

Home | Current Version | Previous Version | Text Only | Print | Product List | Glossary Off
Versions: 1 2 3 4 5 6 7 8 9 10 11 12 13 14 15 16 17 18 19 20 21 22 23 24 25 26 27 28 29 30 31 32 33 34 35 36 37 38 39 40 41 42 43 44 45 46 47 48 49 50

000
ASUS43 KMKX 212200
RWRWI

WISCONSIN REGIONAL WEATHER ROUNDUP
NATIONAL WEATHER SERVICE MILWAUKEE/SULLIVAN WI
500 PM CDT SAT OCT 21 2017

NOTE: "FAIR" INDICATES FEW OR NO CLOUDS BELOW 12,000 FEET WITH NO
SIGNIFICANT WEATHER AND/OR OBSTRUCTIONS TO VISIBILITY.

WIZ001-002-006>008-014>016-023>028-212300-
NORTHWEST WISCONSIN

CITY           SKY/WX    TMP DP  RH WIND       PRES   REMARKS
SUPERIOR ARPT  CLOUDY    64  60  87 S13G18    29.65S
ASHLAND        CLOUDY    67  58  72 S16G24    29.70S
HAYWARD        CLOUDY    65  57  75 S15G24    29.72S
SIREN          CLOUDY    65  58  77 S18G26    29.68S
CUMBERLAND     CLOUDY    63  55  77 S14G22    29.71F
RICE LAKE      CLOUDY    65  58  77 S18G24    29.74S
CHETEK         CLOUDY    66  59  78 S15G25    29.74F
LADYSMITH      CLOUDY    67  58  73 S14G22    29.78S
EAU CLAIRE     NOT AVBL
MENOMONIE      CLOUDY    68  59  72 S16G24    29.74F
NEW RICHMOND   CLOUDY    65  57  75 S17G23    29.68F
OSCEOLA        CLOUDY    66  59  77 S17G24    29.69F
$$

WIZ003>005-009-010-017-018-212300-
NORTH CENTRAL WISCONSIN

CITY           SKY/WX    TMP DP  RH WIND       PRES   REMARKS
MANITOWISH WTR CLOUDY    65  58  77 S18       29.79S
ARBOR VITAE    PTCLDY    67  58  72 S18G26    29.81S
WOODRUFF       PTCLDY    67  58  72 S18G26    29.81S
RHINELANDER    CLOUDY    67  57  70 S10       29.85R
EAGLE RIVER    NOT AVBL
LAND O LAKES   CLOUDY    68  55  64 S6        29.83S
PHILLIPS       CLOUDY    65  58  78 S18       29.78S
TOMAHAWK       CLOUDY    65  56  71 S6        29.84R
MEDFORD        CLOUDY    64  56  75 S8        29.84S
MERRILL        CLOUDY    68  57  68 SW7       29.85R
$$

WIZ029-030-035-036-043>047-212300-
CENTRAL WISCONSIN

CITY           SKY/WX    TMP DP  RH WIND       PRES   REMARKS
WAUSAU         CLOUDY    71  56  58 S10       29.83S
MOSINEE        MOCLDY    70  57  64 S6G13     29.86R
MARSHFIELD     CLOUDY    69  57  65 SE6       29.82F
STEVENS POINT  CLOUDY    72  57  59 S10G17    29.85F
WAUPACA        PTCLDY    77  58  52 S12       29.87S
WAUTOMA        MOCLDY   N/A N/A N/A S7        29.87
WISC RAPIDS    CLOUDY    74  59  59 S10       29.85S
CAMP DOUGLAS   NOT AVBL
$$

WIZ011>013-019>022-031-037>040-048>050-212300-
NORTHEAST WISCONSIN

CITY           SKY/WX    TMP DP  RH WIND       PRES   REMARKS
ANTIGO         MOCLDY    69  56  62 S16G26    29.87R
SHAWANO        CLOUDY    73  55  53 S6        29.87S
OCONTO         CLEAR     66  54  64 S10G18    29.90R
STURGEON BAY   CLEAR     62  54  74 S21G28    29.92R
GREEN BAY      CLEAR     70  57  63 SE10      29.90R
MANITOWOC      CLEAR     61  54  77 S17G28    29.94S
APPLETON       PTCLDY    73  54  49 S13       29.88F
CLINTONVILLE   NOT AVBL
OSHKOSH        CLEAR     74  58  57 S18       29.88S
$$

WIZ032>034-041-042-053>061-212300-
SOUTHWEST WISCONSIN

CITY           SKY/WX    TMP DP  RH WIND       PRES   REMARKS
LA CROSSE      CLOUDY    70  59  68 SE5       29.79F
SPARTA         CLOUDY    73  59  61 S8        29.82S
VIROQUA        CLOUDY    72  60  64 S10G18    29.84S
BOSCOBEL       CLOUDY    77  58  51 S7        29.84S
PRAIRIE DU CHI CLOUDY    76  56  50 SE10      29.82S
PLATTEVILLE    CLOUDY    75  60  58 S18G28    29.88S
$$

WIZ056-057-062-063-064-067-068-212300-
SOUTH CENTRAL WISCONSIN

CITY           SKY/WX    TMP DP  RH WIND       PRES   REMARKS
REEDSBURG      CLOUDY    75  58  57 S13G25    29.86S
BARABOO/DELLS  MOSUNNY   73  56  53 S14G22    29.87S
LONE ROCK      NOT AVBL
MINERAL POINT  CLOUDY    73  59  60 S14G22    29.89R
MADISON        MOSUNNY   75  57  53 S13       29.89R
MIDDLETON      SUNNY     77  56  47 S13G20    29.89R
WATERTOWN      CLEAR     75  56  51 S12G17    29.91R
MONROE         SUNNY     75  55  50 S20G28    29.90S
JANESVILLE     MOSUNNY   79  54  41 S13       29.91R
$$

WIZ051-052-058>065-066-070>072-212300-
SOUTHEAST WISCONSIN

CITY           SKY/WX    TMP DP  RH WIND       PRES   REMARKS
MILWAUKEE      PTCLDY    73  57  57 S16       29.95R
WAUKESHA       CLEAR     73  54  49 S12G21    29.94S
MILWAUKEE/TIMM CLEAR     75  52  43 S10       29.94S
RACINE         PTCLDY    66  57  72 S14G23    29.97S
BURLINGTON     CLEAR     77  58  51 S14G22    29.94S
KENOSHA        PTCLDY    74  56  53 S15       29.96R
FOND DU LAC    CLEAR     76  55  48 S9G23     29.89S
SHEBOYGAN      CLEAR     66  56  70 S14       29.93F
WEST BEND      CLEAR     73  52  46 S10G18    29.92S
JUNEAU         CLEAR     74  56  52 S15G24    29.92S
$$

LSZ147-162-212300-
LAKE SUPERIOR

STATION/POSITION TIME  TEMP    WIND        PRES    WAVE
                       AIR SEA DIR/SP/G            HT/PER
                 (UTC) (F)     (DEG/KT/KT) (MB)    (FT/S)
W MID LAKE BUOY  2050   58 52              1005.7F   2/ 4
DEVILS ISLAND    2100   63     170/ 15/ 22 1005.1F
PORT WING        1940          170/ 12/ 23 1005.1
SAXON HARBOR     2140   69     180/  5/ 18 1005.4F
$$

LMZ867-665-643>646-212300-
LAKE MICHIGAN

STATION/POSITION TIME  TEMP    WIND        PRES    WAVE
                       AIR SEA DIR/SP/G            HT/PER
                 (UTC) (F)     (DEG/KT/KT) (MB)    (FT/S)
S GREEN BAY BUOY 2130   65 58  160/ 14/ 17 1012.0F
N MID LAKE BUOY  2050   62 58  190/ 21/ 25 1014.2R   7/ 6
NORTHPORT PIER   2132   60     160/ 12/ 25 1013.5S
KEWAUNEE LAKESHO 2130   55     180/ 12/ 17 1013.0F
SHEBOYGAN LAKESH 2100   57     180/ 19/ 22 1013.6F
PORT WASHINGTON  2130   61     200/  6/ 11 1014.9S
ATWATER BUOY     2039   59 53  160/ 21/ 25 1013.9F
MILWAUKEE LAKESH 2150   58     140/ 14/ 15   N/A
S MID LAKE BUOY  2050   65 61  150/ 19/ 21 1015.8F   4/ 5
KENOSHA   LAKESH 2100   61     170/ 17/ 19 1014.2
$$

TC  - TEMPERATURE IN CELSIUS
VSB - VISIBILITY IN STATUTE MILES
WCI - WIND CHILL INDEX
HX  - HEAT INDEX





USA.gov is the U.S. government's official web portal to all federal, state and local government web resources and services.